Fort Myers, FL

4:28 AM EDT on March 29, 2017 (GMT -0400)
Page

Weather History for KFMY - February, 2014

Change the Weather History Date:

Friday, February 28, 2014

  Actual Average Record
Temperature  
Mean Temperature 63 °F 68 °F  
Max Temperature 72 °F 79 °F 90 °F (2017)
Min Temperature 54 °F 57 °F 35 °F (1935)
Degree Days  
Heating Degree Days 2 1  
Month to date heating degree days 18 60  
Since 1 July heating degree days 169 260  
Cooling Degree Days 0 4  
Month to date cooling degree days 178 102  
Year to date cooling degree days 261 185  
Growing Degree Days 12 (Base 50)    
Moisture  
Dew Point 49 °F    
Average Humidity 71    
Maximum Humidity 93    
Minimum Humidity 38    
Precipitation  
Precipitation 0.11 in 0.09 in 2.26 in (1933)
Month to date precipitation 1.28 2.15  
Year to date precipitation 3.44 4.09  
Sea Level Pressure  
Sea Level Pressure 30.02 in    
Wind  
Wind Speed 7 mph (North)    
Max Wind Speed 13 mph    
Max Gust Speed 19 mph    
Visibility 9 miles    
Events Rain    
T = Trace of Precipitation, MM = Missing Value Source: NWS Daily Summary

Daily Weather History Graph

Daily Weather History Graph

Search for Another Location

Airport or City:

Trip Planner

Search our weather history database for the weather conditions in past years. The results will help you decide how hot, cold, wet, or windy it might be!

Date:

Astronomy

Feb. 28, 2014 Rise Set
Actual Time 6:52 AM EST 6:28 PM EST
Civil Twilight 6:28 AM EST 6:51 PM EST
Nautical Twilight 6:01 AM EST 7:18 PM EST
Astronomical Twilight 5:35 AM EST 7:45 PM EST
Moon 6:04 AM EST (2/28) 6:01 PM EST (2/28)
Length of Visible Light 12h 22m
Length of Day
11h 36m
Waning Crescent, 1% of the Moon is Illuminated
Feb 28
Waning Crescent
Mar 1
New
Mar 8
First Quarter
Mar 16
Full
Mar 23
Last Quarter

Hourly Weather History & Observations

Time (EST) Temp. Dew Point Humidity Pressure Visibility Wind Dir Wind Speed Gust Speed Precip Events Conditions
12:09 AM 57.0 °F 55.0 °F 93% 29.94 in 4.0 mi East 5.8 mph - 0.01 in Rain Light Rain
12:53 AM 55.9 °F 54.0 °F 93% 29.98 in 3.0 mi North 11.5 mph - 0.09 in Rain Light Rain
1:20 AM 55.0 °F 53.1 °F 93% 29.96 in 8.0 mi NNE 9.2 mph - 0.03 in   Overcast
1:53 AM 55.0 °F 52.0 °F 89% 29.95 in 8.0 mi ESE 4.6 mph - 0.03 in   Mostly Cloudy
2:53 AM 55.0 °F 53.1 °F 93% 29.96 in 8.0 mi North 9.2 mph - N/A   Mostly Cloudy
3:06 AM 55.0 °F 53.1 °F 93% 29.95 in 7.0 mi North 8.1 mph - N/A   Overcast
3:18 AM 55.0 °F 53.1 °F 93% 29.95 in 6.0 mi North 6.9 mph - N/A   Overcast
3:53 AM 55.0 °F 51.1 °F 86% 29.95 in 10.0 mi NNE 5.8 mph - N/A   Overcast
4:05 AM 55.0 °F 52.0 °F 89% 29.95 in 10.0 mi North 4.6 mph - N/A   Overcast
4:53 AM 55.0 °F 51.1 °F 86% 29.97 in 10.0 mi North 6.9 mph - N/A   Mostly Cloudy
5:53 AM 54.0 °F 51.1 °F 90% 29.98 in 10.0 mi North 8.1 mph - N/A   Clear
6:53 AM 54.0 °F 50.0 °F 86% 30.00 in 10.0 mi North 4.6 mph - N/A   Scattered Clouds
7:53 AM 55.0 °F 48.9 °F 80% 30.03 in 10.0 mi North 5.8 mph - N/A   Clear
8:53 AM 55.9 °F 48.0 °F 75% 30.05 in 10.0 mi North 4.6 mph - N/A   Clear
9:53 AM 60.1 °F 50.0 °F 69% 30.07 in 10.0 mi Variable 3.5 mph - N/A   Clear
10:53 AM 63.0 °F 50.0 °F 63% 30.08 in 10.0 mi Variable 4.6 mph - N/A   Clear
11:53 AM 64.9 °F 48.9 °F 56% 30.08 in 10.0 mi North 9.2 mph - N/A   Clear
12:53 PM 69.1 °F 48.9 °F 49% 30.06 in 10.0 mi West 8.1 mph - N/A   Clear
1:53 PM 70.0 °F 46.9 °F 44% 30.03 in 10.0 mi NW 11.5 mph - N/A   Clear
2:53 PM 71.1 °F 46.0 °F 41% 30.02 in 10.0 mi NW 10.4 mph 17.3 mph N/A   Clear
3:53 PM 71.1 °F 44.1 °F 38% 30.01 in 7.0 mi NNW 10.4 mph - N/A   Clear
4:53 PM 70.0 °F 46.0 °F 42% 30.01 in 10.0 mi NW 9.2 mph - N/A   Clear
5:53 PM 68.0 °F 46.9 °F 47% 30.02 in 10.0 mi WNW 9.2 mph - N/A   Clear
6:53 PM 64.0 °F 46.0 °F 52% 30.04 in 10.0 mi WNW 9.2 mph - N/A   Clear
7:53 PM 62.1 °F 46.9 °F 58% 30.06 in 10.0 mi NW 6.9 mph - N/A   Clear
8:53 PM 60.1 °F 46.9 °F 62% 30.08 in 10.0 mi NNW 6.9 mph - N/A   Clear
9:53 PM 59.0 °F 46.9 °F 64% 30.10 in 10.0 mi North 6.9 mph - N/A   Clear
10:53 PM 57.0 °F 45.0 °F 64% 30.11 in 10.0 mi North 6.9 mph - N/A   Clear
11:53 PM 57.0 °F 44.1 °F 62% 30.11 in 10.0 mi North 4.6 mph - N/A   Clear